{"data":{"norad_id":48688,"epoch":"2026-09-19T13:31:48.378432Z","epoch_age_seconds":117110,"freshness":"FRESH","line1":"1 48688U 21044BC  26262.56375438  .00001368  00000+0  55825-4 0  9990","line2":"2 48688  53.1593 242.9324 0001342  82.8376 277.2778 15.31704735294205","mean_motion":15.31704735,"eccentricity":0.0001342,"inclination_deg":53.1593,"raan_deg":242.9324,"arg_perigee_deg":82.8376,"mean_anomaly_deg":277.2778,"bstar":5.5825e-5,"rev_number":29420,"period_min":94.012897335595,"perigee_km":469.80676307484,"apogee_km":471.64499787196,"semimajor_km":6848.8628804734,"source":"CELESTRAK","updated_at":"2026-09-20T09:00:39.244713Z"}}